N47031 USUU-USCC

Flight info

Callsign N47031
Flight time 0h 54m
Altitude 8000
Route N0192F080 BEKAT L158 UTABI
Aircraft BE58/L-SDFY/N

Departure

Time 2026-04-26 14:08
Airport Kurgan Airport (USUU)

Arrival

Time 2026-04-26 15:03
Airport Kurchatov Chelyabinsk International Airport (USCC)
Time Latitude Longitude Altitude Speed Heading
2026-04-26 13:39 55.46357 65.41105 220 ft 0 kts 233°
2026-04-26 13:55 55.46354 65.41098 220 ft 1 kts 232°
2026-04-26 13:56 55.46333 65.41048 220 ft 9 kts 248°
2026-04-26 13:56 55.46342 65.40959 220 ft 6 kts 299°
2026-04-26 13:56 55.46357 65.40909 220 ft 3 kts 298°
2026-04-26 13:56 55.46361 65.40897 220 ft 0 kts 301°
2026-04-26 13:57 55.46376 65.40858 220 ft 11 kts 303°
2026-04-26 13:57 55.46420 65.40734 219 ft 11 kts 302°
2026-04-26 13:57 55.46440 65.40676 219 ft 0 kts 300°
2026-04-26 14:03 55.46440 65.40675 217 ft 1 kts 300°
2026-04-26 14:03 55.46472 65.40575 219 ft 17 kts 300°
2026-04-26 14:03 55.46588 65.40564 218 ft 22 kts 31°
2026-04-26 14:04 55.46736 65.40719 221 ft 27 kts 31°
2026-04-26 14:04 55.46912 65.40904 222 ft 32 kts 28°
2026-04-26 14:04 55.47119 65.41121 219 ft 37 kts 31°
2026-04-26 14:04 55.47345 65.41355 221 ft 36 kts 33°
2026-04-26 14:05 55.47551 65.41549 222 ft 32 kts 18°
2026-04-26 14:05 55.47728 65.41744 219 ft 29 kts 28°
2026-04-26 14:05 55.47894 65.41924 218 ft 27 kts 27°
2026-04-26 14:05 55.48035 65.42086 219 ft 16 kts 33°
2026-04-26 14:06 55.48061 65.42076 220 ft 8 kts 200°
2026-04-26 14:06 55.48049 65.42066 219 ft 0 kts 209°
2026-04-26 14:07 55.48022 65.42039 219 ft 12 kts 211°
2026-04-26 14:07 55.47744 65.41752 221 ft 88 kts 211°
2026-04-26 14:08 55.47095 65.41108 393 ft 125 kts 213°
2026-04-26 14:08 55.46268 65.40265 660 ft 145 kts 213°
2026-04-26 14:08 55.45388 65.39307 1004 ft 152 kts 216°
2026-04-26 14:08 55.44319 65.38792 1133 ft 174 kts 181°
2026-04-26 14:09 55.43196 65.39729 1271 ft 191 kts 136°
2026-04-26 14:09 55.42607 65.41854 1411 ft 202 kts 101°
2026-04-26 14:09 55.42664 65.44259 1791 ft 193 kts 73°
2026-04-26 14:09 55.43265 65.46314 2126 ft 185 kts 42°
2026-04-26 14:10 55.44326 65.47301 2533 ft 166 kts 357°
2026-04-26 14:10 55.45329 65.46733 2930 ft 148 kts 310°
2026-04-26 14:10 55.45740 65.45158 3321 ft 142 kts 287°
2026-04-26 14:10 55.46382 65.43858 3684 ft 148 kts 328°
2026-04-26 14:11 55.48382 65.42899 4456 ft 147 kts 339°
2026-04-26 14:11 55.49353 65.42441 4830 ft 145 kts 333°
2026-04-26 14:11 55.50235 65.41643 5133 ft 141 kts 315°
2026-04-26 14:12 55.50890 65.40388 5469 ft 138 kts 310°
2026-04-26 14:12 55.51482 65.39133 5857 ft 129 kts 284°
2026-04-26 14:12 55.51542 65.37586 6268 ft 126 kts 271°
2026-04-26 14:12 55.51544 65.36052 6652 ft 125 kts 270°
2026-04-26 14:13 55.51498 65.33032 7421 ft 121 kts 269°
2026-04-26 14:13 55.51471 65.31556 7730 ft 123 kts 268°
2026-04-26 14:13 55.51445 65.29983 7877 ft 134 kts 269°
2026-04-26 14:14 55.51419 65.28271 7937 ft 145 kts 269°
2026-04-26 14:14 55.51393 65.26432 7964 ft 154 kts 269°
2026-04-26 14:14 55.51367 65.24506 7972 ft 160 kts 269°
2026-04-26 14:14 55.51336 65.22515 7978 ft 164 kts 269°
2026-04-26 14:15 55.51309 65.20720 7981 ft 166 kts 269°
2026-04-26 14:15 55.51269 65.18668 7983 ft 168 kts 268°
2026-04-26 14:15 55.51217 65.16615 7983 ft 167 kts 269°
2026-04-26 14:15 55.51191 65.14573 7983 ft 166 kts 270°
2026-04-26 14:16 55.51174 65.12546 7984 ft 165 kts 269°
2026-04-26 14:16 55.51152 65.10530 7984 ft 164 kts 269°
2026-04-26 14:16 55.51126 65.08513 7990 ft 164 kts 269°
2026-04-26 14:16 55.51098 65.06501 7990 ft 164 kts 269°
2026-04-26 14:17 55.51065 65.04482 7987 ft 165 kts 269°
2026-04-26 14:17 55.51033 65.02466 7990 ft 164 kts 269°
2026-04-26 14:17 55.51000 65.00449 7991 ft 164 kts 269°
2026-04-26 14:17 55.50972 64.98431 7987 ft 164 kts 269°
2026-04-26 14:18 55.50945 64.96413 7990 ft 164 kts 269°
2026-04-26 14:18 55.50918 64.94428 7986 ft 164 kts 269°
2026-04-26 14:18 55.50889 64.92410 7991 ft 164 kts 269°
2026-04-26 14:18 55.50860 64.90394 7992 ft 165 kts 269°
2026-04-26 14:19 55.50855 64.88368 7991 ft 165 kts 270°
2026-04-26 14:19 55.50865 64.86346 7991 ft 165 kts 270°
2026-04-26 14:19 55.50881 64.84323 7990 ft 165 kts 271°
2026-04-26 14:19 55.50899 64.82302 7994 ft 165 kts 271°
2026-04-26 14:20 55.50918 64.80276 7990 ft 165 kts 271°
2026-04-26 14:20 55.50935 64.78247 7992 ft 165 kts 271°
2026-04-26 14:20 55.50951 64.76216 7992 ft 166 kts 271°
2026-04-26 14:20 55.50968 64.74184 7988 ft 165 kts 271°
2026-04-26 14:21 55.50986 64.72157 7991 ft 165 kts 271°
2026-04-26 14:21 55.51007 64.70131 7990 ft 165 kts 271°
2026-04-26 14:21 55.51029 64.68108 7990 ft 165 kts 271°
2026-04-26 14:21 55.51050 64.66081 7992 ft 165 kts 271°
2026-04-26 14:22 55.51071 64.64051 7990 ft 165 kts 271°
2026-04-26 14:22 55.51090 64.62052 7991 ft 165 kts 271°
2026-04-26 14:22 55.51109 64.60026 7989 ft 165 kts 271°
2026-04-26 14:22 55.51131 64.57997 7991 ft 165 kts 271°
2026-04-26 14:23 55.51150 64.55969 7992 ft 165 kts 271°
2026-04-26 14:23 55.51169 64.53938 7991 ft 166 kts 271°
2026-04-26 14:23 55.51187 64.51905 7993 ft 166 kts 271°
2026-04-26 14:23 55.51206 64.49866 7994 ft 166 kts 271°
2026-04-26 14:24 55.51226 64.47827 7990 ft 166 kts 271°
2026-04-26 14:24 55.51248 64.45790 7988 ft 166 kts 271°
2026-04-26 14:24 55.51265 64.43755 7989 ft 166 kts 270°
2026-04-26 14:24 55.51271 64.41725 7991 ft 165 kts 270°
2026-04-26 14:25 55.51272 64.39692 7991 ft 166 kts 270°
2026-04-26 14:25 55.51273 64.37659 7993 ft 166 kts 270°
2026-04-26 14:25 55.51274 64.35618 7994 ft 166 kts 270°
2026-04-26 14:25 55.51275 64.33581 7992 ft 166 kts 270°
2026-04-26 14:26 55.51277 64.31538 7994 ft 166 kts 270°
2026-04-26 14:26 55.51276 64.29498 7992 ft 166 kts 270°
2026-04-26 14:26 55.51276 64.27454 7990 ft 166 kts 270°
2026-04-26 14:26 55.51275 64.25415 7995 ft 166 kts 270°
2026-04-26 14:27 55.51275 64.23374 7995 ft 166 kts 270°
2026-04-26 14:27 55.51277 64.21329 7993 ft 167 kts 270°
2026-04-26 14:27 55.51282 64.19286 7990 ft 167 kts 270°
2026-04-26 14:27 55.51285 64.17240 7972 ft 168 kts 270°
2026-04-26 14:28 55.51288 64.15193 7923 ft 170 kts 270°
2026-04-26 14:28 55.51294 64.13112 7905 ft 170 kts 270°
2026-04-26 14:28 55.51301 64.11035 7897 ft 169 kts 270°
2026-04-26 14:28 55.51307 64.08967 7892 ft 168 kts 270°
2026-04-26 14:29 55.51313 64.06905 7893 ft 168 kts 270°
2026-04-26 14:29 55.51317 64.04847 7896 ft 168 kts 270°
2026-04-26 14:29 55.51322 64.02792 7894 ft 168 kts 270°
2026-04-26 14:29 55.51327 64.00735 7894 ft 168 kts 270°
2026-04-26 14:30 55.51336 63.98681 7892 ft 167 kts 270°
2026-04-26 14:30 55.51344 63.96629 7894 ft 167 kts 270°
2026-04-26 14:30 55.51354 63.94577 7896 ft 167 kts 270°
2026-04-26 14:30 55.51363 63.92525 7898 ft 167 kts 270°
2026-04-26 14:31 55.51369 63.90470 7898 ft 168 kts 270°
2026-04-26 14:31 55.51376 63.88414 7891 ft 168 kts 270°
2026-04-26 14:31 55.51383 63.86358 7893 ft 168 kts 270°
2026-04-26 14:31 55.51392 63.84302 7891 ft 167 kts 270°
2026-04-26 14:32 55.51402 63.82247 7897 ft 167 kts 270°
2026-04-26 14:32 55.51410 63.80196 7893 ft 167 kts 270°
2026-04-26 14:32 55.51418 63.78143 7896 ft 168 kts 270°
2026-04-26 14:32 55.51428 63.76083 7893 ft 168 kts 270°
2026-04-26 14:33 55.51440 63.74019 7897 ft 168 kts 270°
2026-04-26 14:33 55.51451 63.71956 7895 ft 168 kts 270°
2026-04-26 14:33 55.51461 63.69895 7894 ft 168 kts 270°
2026-04-26 14:33 55.51469 63.67836 7893 ft 168 kts 270°
2026-04-26 14:34 55.51478 63.65803 7890 ft 168 kts 270°
2026-04-26 14:34 55.51488 63.63746 7894 ft 168 kts 270°
2026-04-26 14:34 55.51495 63.61691 7892 ft 168 kts 270°
2026-04-26 14:34 55.51502 63.59632 7895 ft 168 kts 270°
2026-04-26 14:35 55.51510 63.57574 7894 ft 168 kts 270°
2026-04-26 14:35 55.51518 63.55517 7894 ft 168 kts 270°
2026-04-26 14:35 55.51528 63.53462 7895 ft 167 kts 270°
2026-04-26 14:35 55.51538 63.51408 7897 ft 167 kts 270°
2026-04-26 14:36 55.51550 63.49358 7898 ft 167 kts 270°
2026-04-26 14:36 55.51559 63.47302 7899 ft 168 kts 270°
2026-04-26 14:36 55.51570 63.45245 7898 ft 168 kts 270°
2026-04-26 14:36 55.51580 63.43186 7898 ft 168 kts 270°
2026-04-26 14:37 55.51592 63.41127 7896 ft 167 kts 270°
2026-04-26 14:37 55.51603 63.39077 7897 ft 167 kts 270°
2026-04-26 14:37 55.51613 63.37027 7895 ft 167 kts 270°
2026-04-26 14:37 55.51619 63.34975 7898 ft 167 kts 270°
2026-04-26 14:38 55.51627 63.32923 7895 ft 168 kts 270°
2026-04-26 14:38 55.51640 63.30893 7896 ft 168 kts 270°
2026-04-26 14:38 55.51655 63.28834 7898 ft 168 kts 270°
2026-04-26 14:38 55.51665 63.27442 7899 ft 168 kts 270°
2026-04-26 14:39 55.51684 63.24716 7900 ft 168 kts 270°
2026-04-26 14:39 55.51696 63.22657 7898 ft 168 kts 270°
2026-04-26 14:39 55.51708 63.20595 7897 ft 168 kts 270°
2026-04-26 14:39 55.51722 63.18534 7897 ft 168 kts 270°
2026-04-26 14:40 55.51738 63.16474 7895 ft 168 kts 270°
2026-04-26 14:40 55.51753 63.14415 7899 ft 168 kts 270°
2026-04-26 14:40 55.51768 63.12357 7900 ft 168 kts 270°
2026-04-26 14:40 55.51783 63.10297 7901 ft 168 kts 270°
2026-04-26 14:41 55.51799 63.08231 7899 ft 168 kts 270°
2026-04-26 14:41 55.51816 63.06166 7900 ft 168 kts 270°
2026-04-26 14:41 55.51833 63.04103 7902 ft 168 kts 270°
2026-04-26 14:41 55.51851 63.02042 7900 ft 168 kts 270°
2026-04-26 14:42 55.51868 62.99984 7898 ft 168 kts 270°
2026-04-26 14:42 55.51883 62.97925 7898 ft 167 kts 268°
2026-04-26 14:42 55.51780 62.95883 7899 ft 167 kts 263°
2026-04-26 14:42 55.51620 62.93847 7899 ft 167 kts 262°
2026-04-26 14:43 55.51446 62.91813 7901 ft 168 kts 262°
2026-04-26 14:43 55.51276 62.89806 7900 ft 168 kts 262°
2026-04-26 14:43 55.51107 62.87768 7901 ft 168 kts 262°
2026-04-26 14:43 55.50939 62.85732 7898 ft 168 kts 262°
2026-04-26 14:44 55.50772 62.83692 7900 ft 168 kts 262°
2026-04-26 14:44 55.50603 62.81654 7901 ft 168 kts 262°
2026-04-26 14:44 55.50432 62.79613 7901 ft 168 kts 262°
2026-04-26 14:44 55.50261 62.77572 7899 ft 168 kts 262°
2026-04-26 14:45 55.50092 62.75527 7898 ft 168 kts 262°
2026-04-26 14:45 55.50035 62.74837 7899 ft 168 kts 262°
2026-04-26 14:45 55.49752 62.71438 7902 ft 168 kts 262°
2026-04-26 14:45 55.49581 62.69397 7902 ft 168 kts 262°
2026-04-26 14:46 55.49410 62.67355 7903 ft 168 kts 262°
2026-04-26 14:46 55.49240 62.65311 7902 ft 169 kts 262°
2026-04-26 14:46 55.49128 62.63953 7905 ft 169 kts 262°
2026-04-26 14:46 55.48903 62.61209 7901 ft 169 kts 262°
2026-04-26 14:47 55.48792 62.59852 7903 ft 169 kts 262°
2026-04-26 14:47 55.48622 62.57801 7906 ft 169 kts 262°
2026-04-26 14:47 55.48450 62.55752 7903 ft 169 kts 262°
2026-04-26 14:47 55.48204 62.53727 7907 ft 169 kts 256°
2026-04-26 14:48 55.47855 62.51745 7904 ft 169 kts 253°
2026-04-26 14:48 55.47463 62.49784 7904 ft 170 kts 251°
2026-04-26 14:48 55.47054 62.47835 7903 ft 169 kts 251°
2026-04-26 14:48 55.46640 62.45892 7906 ft 169 kts 251°
2026-04-26 14:49 55.46221 62.43950 7908 ft 169 kts 251°
2026-04-26 14:49 55.45802 62.42011 7909 ft 169 kts 251°
2026-04-26 14:49 55.45382 62.40070 7907 ft 170 kts 251°
2026-04-26 14:49 55.44962 62.38128 7907 ft 170 kts 251°
2026-04-26 14:50 55.44540 62.36184 7904 ft 170 kts 251°
2026-04-26 14:50 55.44117 62.34240 7903 ft 170 kts 251°
2026-04-26 14:50 55.43693 62.32298 7908 ft 170 kts 251°
2026-04-26 14:50 55.43269 62.30356 7907 ft 170 kts 251°
2026-04-26 14:51 55.42845 62.28418 7908 ft 170 kts 251°
2026-04-26 14:51 55.42420 62.26475 7907 ft 170 kts 251°
2026-04-26 14:51 55.41973 62.24546 7910 ft 170 kts 249°
2026-04-26 14:51 55.41492 62.22672 7912 ft 170 kts 248°
2026-04-26 14:52 55.40990 62.20781 7913 ft 171 kts 247°
2026-04-26 14:52 55.40481 62.18893 7909 ft 171 kts 247°
2026-04-26 14:52 55.39968 62.17006 7910 ft 171 kts 247°
2026-04-26 14:52 55.39453 62.15124 7912 ft 171 kts 247°
2026-04-26 14:53 55.38936 62.13244 7913 ft 171 kts 247°
2026-04-26 14:53 55.38419 62.11362 7912 ft 171 kts 247°
2026-04-26 14:53 55.37900 62.09479 7909 ft 171 kts 247°
2026-04-26 14:53 55.37382 62.07600 7912 ft 171 kts 246°
2026-04-26 14:54 55.36864 62.05718 7912 ft 171 kts 247°
2026-04-26 14:54 55.36345 62.03839 7914 ft 171 kts 247°
2026-04-26 14:54 55.35850 62.01999 7910 ft 159 kts 252°
2026-04-26 14:54 55.35716 62.00171 7914 ft 145 kts 266°
2026-04-26 14:55 55.35635 61.98465 7857 ft 139 kts 265°
2026-04-26 14:55 55.35543 61.96764 7671 ft 140 kts 266°
2026-04-26 14:55 55.35453 61.95079 7489 ft 141 kts 264°
2026-04-26 14:55 55.35307 61.93343 7306 ft 142 kts 261°
2026-04-26 14:56 55.35127 61.91628 7128 ft 143 kts 261°
2026-04-26 14:56 55.34930 61.89905 6947 ft 144 kts 260°
2026-04-26 14:56 55.34728 61.88178 6772 ft 145 kts 260°
2026-04-26 14:56 55.34529 61.86440 6595 ft 145 kts 260°
2026-04-26 14:57 55.34339 61.84717 6428 ft 146 kts 261°
2026-04-26 14:57 55.34057 61.83007 6242 ft 149 kts 241°
2026-04-26 14:57 55.33402 61.81584 6053 ft 150 kts 234°
2026-04-26 14:57 55.32729 61.80197 5869 ft 149 kts 234°
2026-04-26 14:58 55.32055 61.78825 5681 ft 148 kts 234°
2026-04-26 14:58 55.31383 61.77461 5495 ft 147 kts 234°
2026-04-26 14:58 55.30735 61.76076 5316 ft 146 kts 237°
2026-04-26 14:58 55.30179 61.74599 5129 ft 145 kts 242°
2026-04-26 14:59 55.29676 61.73076 4952 ft 143 kts 249°
2026-04-26 14:59 55.29271 61.71495 4758 ft 142 kts 252°
2026-04-26 14:59 55.28902 61.69890 4580 ft 141 kts 252°
2026-04-26 14:59 55.28666 61.68826 4458 ft 141 kts 252°
2026-04-26 15:00 55.28219 61.66685 4203 ft 134 kts 259°
2026-04-26 15:00 55.28362 61.65162 4022 ft 124 kts 287°
2026-04-26 15:00 55.28644 61.63781 3857 ft 116 kts 287°
2026-04-26 15:00 55.28859 61.62519 3819 ft 95 kts 282°
2026-04-26 15:01 55.28967 61.61373 3465 ft 102 kts 278°
2026-04-26 15:01 55.29096 61.60137 3120 ft 102 kts 282°
2026-04-26 15:01 55.29241 61.58940 2799 ft 100 kts 281°
2026-04-26 15:01 55.29370 61.57734 2399 ft 103 kts 268°
2026-04-26 15:02 55.29468 61.56455 1889 ft 103 kts 276°
2026-04-26 15:02 55.29680 61.55286 1474 ft 99 kts 283°
2026-04-26 15:02 55.29924 61.54160 1101 ft 100 kts 296°
2026-04-26 15:02 55.30207 61.53085 810 ft 89 kts 281°
2026-04-26 15:03 55.30324 61.52205 744 ft 59 kts 284°
2026-04-26 15:03 55.30408 61.51649 748 ft 33 kts 285°
2026-04-26 15:03 55.30373 61.51420 746 ft 17 kts 196°
2026-04-26 15:03 55.30267 61.51378 744 ft 14 kts 202°
2026-04-26 15:04 55.30186 61.51344 744 ft 11 kts 193°
2026-04-26 15:04 55.30124 61.51314 743 ft 8 kts 189°
2026-04-26 15:04 55.30078 61.51309 743 ft 5 kts 167°
2026-04-26 15:04 55.30048 61.51322 743 ft 3 kts 171°
2026-04-26 15:05 55.30017 61.51323 743 ft 6 kts 187°
2026-04-26 15:05 55.29983 61.51309 743 ft 9 kts 197°
2026-04-26 15:05 55.29969 61.51302 743 ft 0 kts 193°